Location: Mohawk View
(42.7837°N, 73.7885°W)
Time: 16:59:38
(UTC+00:00)

Cosmos 1125 Rocket - Pass Details

Date: 17 June 2021
Orbit: 757 x 780 km, 74.0° (Epoch: 01 August)

Event Time Altitude Azimuth Distance (km) Brightness Sun altitude
Rises 07:56:06 0° 340° (NNW) 3,241 7.2 -11.9°
Reaches altitude 10° 07:58:29 10° 341° (NNW) 2,314 6.4 -11.6°
Maximum altitude 08:03:45 83° 69° (ENE) 782 3.6 -11.0°
Drops below altitude 10° 08:09:02 10° 159° (SSE) 2,314 5.7 -10.3°
Sets 08:11:24 0° 160° (SSE) 3,240 6.5 -10.0°
